CW7079 Weather Reports


time (UTC)temp
C
wind
direction
speed
KPH
gust
KPH
rain 1hr
cm
rain 24hr
cm
rain mn
cm
humidity
%
barometer
mb
20260510181954 11 38 16.1 27.4 0.00 0.00 0.00 56 1016.3
20260510175108 11 24 17.7 30.6 0.00 0.00 0.00 56 1016.4
20260510172157 12 32 19.3 30.6 0.00 0.00 0.00 54 1016.4
20260510165103 13 15 19.3 35.4 0.00 0.00 0.00 52 1016.8
20260510162159 14 54 17.7 32.2 0.00 0.00 0.00 50 1016.8
20260510155235 13 50 17.7 30.6 0.00 0.00 0.00 53 1017.2
20260510152337 14 24 16.1 32.2 0.00 0.00 0.00 51 1017.4
20260510145430 13 55 20.9 32.2 0.00 0.00 0.00 51 1017.8
20260510142500 14 43 19.3 37.0 0.00 0.00 0.00 54 1018.0
20260510135507 14 69 19.3 29.0 0.00 0.00 0.00 55 1018.4
20260510132505 14 28 19.3 35.4 0.00 0.00 0.00 56 1018.4
20260510125507 13 33 20.9 33.8 0.00 0.00 0.00 57 1018.7
20260510122446 13 38 20.9 30.6 0.00 0.00 0.00 61 1018.9
20260510115600 12 5 20.9 32.2 0.00 0.00 0.00 62 1019.4
20260510112520 12 25 19.3 32.2 0.00 0.00 0.00 64 1019.5
20260510105400 12 34 19.3 30.6 0.00 0.00 0.00 67 1019.9
20260510102316 12 26 22.5 35.4 0.00 0.00 0.00 69 1019.9
20260510095306 13 16 20.9 33.8 0.00 0.00 0.00 68 1019.9
20260510092145 12 55 19.3 33.8 0.00 0.00 0.00 72 1020.2
20260510085202 11 38 14.5 25.7 0.00 0.00 0.00 75 1020.5
20260510082220 11 63 17.7 29.0 0.00 0.00 0.00 77 1020.5
20260510075210 11 41 17.7 27.4 0.00 0.00 0.00 79 1020.5
20260510072213 10 24 12.9 24.1 0.00 0.00 0.00 81 1020.4
20260510065130 11 30 12.9 22.5 0.00 0.00 0.00 83 1020.1
20260510062045 10 17 12.9 22.5 0.00 0.00 0.00 84 1020.0
20260510054923 10 27 11.3 20.9 0.00 0.00 0.00 85 1019.9
20260510044821 9 13 9.7 16.1 0.00 0.00 0.00 89 1020.0
20260510041840 8 28 8.0 11.3 0.00 0.00 0.00 89 1020.0
20260510034925 8 13 6.4 11.3 0.00 0.00 0.00 89 1020.1
20260510031835 8 16 6.4 11.3 0.00 0.00 0.00 89 1020.0
20260510024959 8 30 6.4 8.0 0.00 0.00 0.00 88 1020.4
20260510021845 8 28 8.0 17.7 0.00 0.00 0.00 89 1020.3
20260510014941 8 18 8.0 14.5 0.00 0.00 0.00 89 1020.5
20260510012025 8 15 6.4 11.3 0.00 0.00 0.00 89 1020.5
20260510004919 8 5 8.0 12.9 0.00 0.00 0.00 89 1020.5
20260510002039 8 10 9.7 12.9 0.00 0.00 0.00 88 1020.5
20260509234959 8 10 8.0 12.9 0.00 0.00 0.00 86 1020.5
20260509231900 9 19 8.0 11.3 0.00 0.00 0.00 85 1020.9
20260509224956 10 20 8.0 11.3 0.00 0.00 0.00 83 1020.7
20260509221934 10 15 9.7 16.1 0.00 0.00 0.00 82 1020.4
20260509214953 10 24 12.9 22.5 0.00 0.00 0.00 81 1020.2
20260509212032 11 15 14.5 22.5 0.00 0.00 0.00 78 1019.9
20260509204924 11 11 9.7 16.1 0.00 0.00 0.00 59 1019.6
20260509201804 12 22 8.0 14.5 0.00 0.00 0.00 53 1019.5
20260509194903 14 32 6.4 11.3 0.00 0.00 0.00 48 1019.0
20260509191937 15 33 8.0 14.5 0.00 0.00 0.00 45 1018.9
20260509184817 16 48 14.5 20.9 0.00 0.00 0.00 42 1018.4